Regional Weather Roundup
Issued by NWS

Home | Current Version | Previous Version | Text Only | Print | Product List | Glossary On
Versions: 1 2 3 4 5 6 7 8 9 10 11 12 13 14 15 16 17 18 19 20 21 22 23 24 25 26 27 28 29 30 31 32 33 34 35 36 37 38 39 40 41 42 43 44 45 46 47 48 49 50
000
ASUS45 KCYS 041910
RWRWY

WYOMING REGIONAL WEATHER ROUNDUP
NATIONAL WEATHER SERVICE CHEYENNE WY
100 PM MDT FRI SEP 04 2015

NOTE:  "FAIR" INDICATES FEW OR NO CLOUDS BELOW 12,000 FEET
WITH NO SIGNIFICANT WEATHER AND/OR OBSTRUCTIONS TO VISIBILITY.

WYZ001-042000-
YELLOWSTONE NATIONAL PARK

CITY           SKY/WX    TMP DP  RH WIND       PRES   REMARKS
LK YELLOWSTONE   N/A     68  34  28 VRB5      30.04S
W YELLOWSTONE  NOT AVBL

$$
WYZ002>013-054>058-071-098>099-042000-
NORTHERN WYOMING

CITY           SKY/WX    TMP DP  RH WIND       PRES   REMARKS
JACKSON        FAIR      73  34  23 SW16      29.94F
CODY           FAIR      64  45  48 N6        29.91F
GREYBULL       FAIR      74  45  35 VRB3      29.86F
WORLAND        FAIR      72  45  37 NW6       29.87F
SHERIDAN       FAIR      74  46  36 VRB3      29.89F
BUFFALO        FAIR      76  45  33 SE13G20   29.93F
GILLETTE       FAIR      77  50  38 E6        29.90F
HULETT         FAIR      79  50  36 CALM      29.90F
NEWCASTLE      FAIR      82  39  21 W7        29.90F

$$
WYZ014>020-022>026-101>103-042000-
CENTRAL WYOMING

CITY           SKY/WX    TMP DP  RH WIND       PRES   REMARKS
BIG PINEY      PTSUNNY   73  27  18 SW15G29   30.02F
PINEDALE       FAIR      73  27  17 SW14G24   30.04F
DUBOIS         MOCLDY    70  28  21 SW10G18   29.99F
LANDER         FAIR      84  30  14 SW20G29   29.89F
RIVERTON       FAIR      81  32  17 S12G18    29.90F
CASPER         FAIR      85  32  15 SW14G21   29.93F
DOUGLAS        FAIR      85  42  22 VRB3      29.94F

$$
WYZ021-027>030-104>119-042000-
SOUTHERN WYOMING

CITY           SKY/WX    TMP DP  RH WIND       PRES   REMARKS
EVANSTON       FAIR      75  26  16 SW21G38   30.01F
KEMMERER       FAIR      73  23  15 SW20G28   30.03F
FORT BRIDGER   PTCLDY    77  25  14 SW14G20   30.04F
ROCK SPRINGS   FAIR      75  34  22 S29G37    30.01F
DIXON          FAIR      78  38  23 S13G22    30.09F
RAWLINS        FAIR      80  35  19 S21G29    30.06F
SARATOGA       FAIR      75  39  27 S8        30.10F
LARAMIE        FAIR      74  36  25 W7G17     30.12F
CHEYENNE       FAIR      80  33  18 W6        30.04F
TORRINGTON     FAIR      89  42  19 VRB5      29.89F
PINE BLUFFS    FAIR      88  32  13 W5        29.97F

$$


USA.gov is the U.S. government's official web portal to all federal, state and local government web resources and services.